📊 Raw Sensor Data
Showing records 51201 to 51225 of 85,145 total
| ID | Distance (ft) | Battery V | Battery A | Int Temp (°F) | Int Humid (%) | Ext Temp (°F) | Solar V | RSSI | SNR | Time Stamp |
|---|---|---|---|---|---|---|---|---|---|---|
| 33957 | 15.0 | 3.99 | 6 | 72 | 36 | 59 | 5.10 | -79 | 8 | 03/03/2025 02:15 PM |
| 33956 | 14.9 | 3.99 | 6 | 68 | 36 | 61 | 5.10 | -76 | 8 | 03/03/2025 01:30 PM |
| 33955 | 14.9 | 3.98 | 0 | 69 | 35 | 59 | 5.10 | -75 | 8 | 03/03/2025 01:15 PM |
| 33954 | 14.9 | 3.98 | 6 | 69 | 35 | 62 | 5.10 | -80 | 7 | 03/03/2025 01:00 PM |
| 33953 | 14.9 | 3.98 | 6 | 67 | 36 | 59 | 5.10 | -77 | 8 | 03/03/2025 12:45 PM |
| 33952 | 15.0 | 3.98 | 6 | 66 | 35 | 59 | 5.10 | -80 | 7 | 03/03/2025 12:15 PM |
| 33951 | 15.0 | 3.98 | 6 | 64 | 35 | 57 | 5.10 | -80 | 8 | 03/03/2025 11:45 AM |
| 33950 | 15.0 | 4.07 | 6 | 61 | 35 | 56 | 5.10 | -79 | 8 | 03/03/2025 11:15 AM |
| 33949 | 15.0 | 3.98 | 6 | 60 | 35 | 55 | 5.10 | -77 | 8 | 03/03/2025 11:00 AM |
| 33948 | 15.0 | 3.99 | 6 | 59 | 35 | 56 | 5.10 | -78 | 8 | 03/03/2025 10:45 AM |
| 33947 | 15.0 | 3.98 | 6 | 58 | 35 | 56 | 5.10 | -77 | 8 | 03/03/2025 10:30 AM |
| 33946 | 15.0 | 3.98 | 6 | 56 | 35 | 55 | 5.10 | -77 | 8 | 03/03/2025 10:15 AM |
| 33945 | 15.0 | 3.98 | 6 | 54 | 35 | 55 | 5.10 | -78 | 8 | 03/03/2025 10:00 AM |
| 33944 | 15.0 | 3.98 | 0 | 52 | 35 | 52 | 5.10 | -77 | 8 | 03/03/2025 09:45 AM |
| 33943 | 15.0 | 3.98 | 6 | 51 | 35 | 51 | 5.10 | -75 | 8 | 03/03/2025 09:30 AM |
| 33942 | 15.0 | 4.13 | 0 | 48 | 35 | 50 | 5.10 | -77 | 8 | 03/03/2025 09:15 AM |
| 33941 | 15.0 | 4.11 | 6 | 47 | 35 | 49 | 5.10 | -75 | 8 | 03/03/2025 09:00 AM |
| 33940 | 15.0 | 3.98 | 6 | 45 | 35 | 48 | 5.10 | -77 | 8 | 03/03/2025 08:45 AM |
| 33939 | 14.9 | 3.98 | 6 | 44 | 35 | 47 | 5.10 | -77 | 8 | 03/03/2025 08:30 AM |
| 33938 | 14.9 | 3.98 | 5 | 43 | 35 | 47 | 5.10 | -78 | 8 | 03/03/2025 08:15 AM |
| 33937 | 14.9 | 3.99 | 6 | 42 | 35 | 48 | 5.10 | -78 | 7 | 03/03/2025 08:00 AM |
| 33936 | 14.8 | 3.98 | 0 | 41 | 35 | 48 | 5.10 | -77 | 7 | 03/03/2025 07:45 AM |
| 33935 | 14.8 | 4.07 | 48 | 38 | 35 | 45 | 4.50 | -77 | 8 | 03/03/2025 07:30 AM |
| 33934 | 14.8 | 4.04 | 50 | 36 | 36 | 43 | 4.50 | -78 | 7 | 03/03/2025 07:15 AM |
| 33933 | 14.8 | 4.01 | 0 | 33 | 37 | 37 | 4.50 | -78 | 8 | 03/03/2025 07:00 AM |